Location: Columbia
(38.9520°N, 92.3340°W)
Time: 07:17:34
(UTC-05:00)

Iridium 52 - Visible Passes

Search period start: 30 June 2016 00:00
Search period end: 10 July 2016 00:00
Orbit: 776 x 779 km, 86.4° (Epoch: 29 June)

Date Brightness Start Highest point End Pass type
(mag) Time Alt. Az. Time Alt. Az. Time Alt. Az.
30 Jun 7.8 02:31:36 10° NNE 02:35:56 26° E 02:38:46 17° ESE visible
30 Jun 6.9 04:12:01 10° NNW 04:16:38 33° W 04:19:13 21° SW visible
01 Jul 8.5 01:59:23 10° NE 02:02:06 14° ENE 02:04:47 10° ESE visible
01 Jul 6.1 03:38:06 10° N 03:43:16 62° W 03:45:28 33° SSW visible
02 Jul 6.2 03:04:32 10° N 03:09:46 71° E 03:11:44 38° SSE visible
02 Jul 8.0 04:47:47 10° NW 04:49:46 12° WNW 04:51:45 10° W visible
03 Jul 7.1 02:31:19 10° NNE 02:36:09 37° E 02:38:00 28° ESE visible
03 Jul 7.4 04:12:34 10° NNW 04:16:35 23° W 04:18:28 19° WSW visible
04 Jul 8.0 01:58:33 10° NNE 02:02:24 20° ENE 02:04:18 17° ESE visible
04 Jul 6.5 03:38:23 10° NNW 03:43:17 42° W 03:44:45 34° SW visible
05 Jul 8.6 01:27:18 10° ENE 01:28:30 11° ENE 01:29:42 10° E visible
05 Jul 5.9 03:04:37 10° N 03:09:51 80° W 03:11:04 54° SSW visible
06 Jul 6.5 02:31:11 10° N 02:36:18 55° E 02:37:22 46° SE visible
06 Jul 7.7 04:13:26 10° NW 04:16:29 16° W 04:17:49 15° W visible
07 Jul 7.4 01:58:06 10° NNE 02:02:38 29° E 02:03:42 27° ESE visible
07 Jul 7.0 03:38:49 10° NNW 03:43:15 29° W 03:44:09 27° WSW visible
08 Jul 8.1 01:25:39 10° NE 01:28:50 16° ENE 01:30:03 15° E visible
08 Jul 6.2 03:04:49 10° NNW 03:09:54 54° W 03:10:30 51° WSW visible
09 Jul 5.9 02:31:11 10° N 02:36:25 80° E 02:36:51 74° SE visible
09 Jul 8.1 04:15:24 10° WNW 04:16:20 10° WNW 04:17:17 10° W visible
